This demonstration page uses our WeatherBlox Daily Observations layout. Learn more.

Left ArrowRight Arrow

Hourly Observations for November 15, 2015

Temp ( °F °C ) Dew Point ( °F °C ) Humidity (%) Winds ( mph kmh ) Pressure ( in mb ) Visibility ( mi km ) Precip ( " mm )
12:53 am 00:53 Clear 47 8.3 31 -0.6 54 54 S 9 15 30.04 1017 10 16 0.00 0.00
1:53 am 01:53 Clear 44 6.7 31 -0.6 60 60 S 7 11 30.04 1017 10 16 0.00 0.00
2:53 am 02:53 Clear 42 5.6 31 -0.6 65 65 S 8 13 30.04 1017 10 16 0.00 0.00
3:53 am 03:53 Clear 42 5.6 31 -0.6 65 65 S 9 15 30.02 1017 10 16 0.00 0.00
4:53 am 04:53 Clear 40 4.4 31 -0.6 70 70 S 10 17 30.02 1017 10 16 0.00 0.00
5:53 am 05:53 Clear 40 4.4 32 0 73 73 S 9 15 30.01 1016 10 16 0.00 0.00
6:53 am 06:53 Clear 39 3.9 32 0 76 76 S 8 13 30.01 1016 10 16 0.00 0.00
7:53 am 07:53 Sunny 39 3.9 32 0 76 76 S 8 13 30.01 1016 10 16 0.00 0.00
8:53 am 08:53 Sunny 44 6.7 35 1.7 71 71 S 10 17 30.00 1016 10 16 0.00 0.00
9:53 am 09:53 Sunny 49 9.4 38 3.3 66 66 S 14 22 29.98 1015 10 16 0.00 0.00
10:53 am 10:53 Mostly Sunny 52 11.1 40 4.4 64 64 SSW 15 24 29.96 1015 10 16 0.00 0.00
11:29 am 11:29 Mostly Cloudy 51 10.6 41 5 69 69 S 16 26 29.97 1015 10 16 0.00 0.00
11:53 am 11:53 Cloudy 50 10 41 5 71 71 SSW 16 26 29.96 1014 10 16 0.00 0.00
12:38 pm 12:38 Cloudy 50 10 43 6 76 76 S 13 20 29.94 1014 10 16 0.00 0.00
12:53 pm 12:53 Cloudy 50 10 43 6.1 77 77 S 13 20 29.93 1013 10 16 0.00 0.00
1:41 pm 13:41 Cloudy 52 11 45 7 77 77 S 17 28 29.88 1012 10 16 0.00 0.00
1:53 pm 13:53 Cloudy 52 11.1 44 6.7 75 75 S 14 22 29.88 1012 10 16 0.00 0.00
2:53 pm 14:53 Cloudy 53 11.7 44 6.7 72 72 S 15 24 29.86 1011 10 16 0.00 0.00
3:53 pm 15:53 Cloudy 53 11.7 45 7.2 74 74 S 17 28 29.85 1011 10 16 0.00 0.00
4:53 pm 16:53 Cloudy 53 11.7 45 7.2 74 74 S 14 22 29.83 1010 10 16 0.00 0.00
5:53 pm 17:53 Cloudy 53 11.7 46 7.8 77 77 S 12 19 29.82 1010 10 16 0.00 0.00
6:53 pm 18:53 Cloudy 53 11.7 46 7.8 77 77 S 16 26 29.81 1010 10 16 0.00 0.00
7:53 pm 19:53 Cloudy 53 11.7 47 8.3 80 80 S 15 24 29.81 1009 10 16 0.00 0.00
8:53 pm 20:53 Cloudy 54 12.2 48 8.9 80 80 S 14 22 29.78 1009 10 16 0.00 0.00
9:45 pm 21:45 Cloudy 54 12.2 48 8.9 80 80 S 13 20 29.74 1007 10 16 0.00 0.00
9:53 pm 21:53 Cloudy 54 12.2 48 8.9 80 80 S 14 22 29.76 1008 10 16 0.00 0.00
10:53 pm 22:53 Cloudy 54 12.2 48 8.9 80 80 S 16 26 29.74 1007 10 16 0.00 0.00
11:53 pm 23:53 Cloudy with Light Rain 53 11.7 49 9.4 86 86 S 16 26 29.71 1006 10 16 0.00 0.03

Powered by AerisWeather